Погода в Бабаюрте

Россия / Республика Дагестан     43°36′04″N   46°46′45″E
темп.,
°C
ветер,
м/с
пор.,
м/с
влажн.,
%
обл.,
%
осадки,
мм/ч
давл.,
гПа
погр.,
м
6 мая, чт
чт600:00+10юв347099 0.0 101854
03:00+10вюв4868100 0.0 1018130
06:00+11в51166100 0.0 1017287
09:00+17вюв9124110 0.0 10171132
12:00+18вюв1012372 0.0 10151283
15:00+18вюв1012420 0.0 10141128
18:00+14вюв814540 0.0 1014639
21:00+11в613705 0.0 1016348
7 мая, пт
пт700:00+10в5128395 0.0 1015286
03:00+10вюв41087100 0.0 1014232
06:00+11юв2684100 0.0 1016195
09:00+17юв3352100 0.0 1017682
12:00+21юв2246100 0.0 10171198
15:00+22вюв324657 0.0 10161539
18:00+17вюв57665 0.0 1017325
21:00+11вюв35817 0.0 101980
8 мая, сб
сб800:00+11вюв338558 0.0 101931
03:00+10вюв22900 0.0 101824
06:00+13вюв24855 0.0 101899
09:00+20в56585 0.0 1017649
12:00+22вюв89480 0.0 1016916
15:00+21вюв912525 0.0 1015709
18:00+16в8156817 0.0 1014450
21:00+14вюв81677100 0.0 1014371
9 мая, вс
вс900:00+14вюв8167368 0.0 1011434
03:00+13вюв611893 0.0 1011327
06:00+14вюв589226 0.0 1010316
09:00+20вюв896719 0.0 1008630
12:00+22вюв9106258 0.0 1005663
15:00+20всв216693 0.0 1007602
18:00+20сз2672100 0.0 1008365
21:00+13з121880100 2.3 10171141
10 мая, пн
пн1000:00+8з121887100 2.5 10211112
03:00+8з91388100 3.6 10221135
06:00+8з111581100 0.3 10231065
09:00+10з101372100 0.3 10241243
12:00+12з8115973 0.3 10221431
15:00+17з57415 0.3 10212206
18:00+16юз11535 0.0 102111
21:00+10ю22595 0.0 102111